Location: Geyikbay?r?
(36.8756°N, 30.4583°E)
Time: 17:15:30
(UTC+00:00)

Cosmos 1190 Rocket - Pass Details

Date: 05 August 2024
Orbit: 754 x 777 km, 74.1° (Epoch: 11 September)

Event Time Altitude Azimuth Distance (km) Brightness Sun altitude
Rises 18:45:48 0° 340° (NNW) 3,214 8.2 -18.9°
Reaches altitude 10° 18:48:10 10° 339° (NNW) 2,285 7.3 -19.3°
Maximum altitude 18:53:20 77° 254° (WSW) 777 4.0 -20.1°
Enters shadow 18:55:39 33° 174° (S) 1,241 4.7 -20.4°
